St. Charles, IL

1:30 PM CST on November 23, 2017 (GMT -0600)
Saint Charles County Smartt

Weather History for KSET - October, 2013

Change the Weather History Date:

Wednesday, October 9, 2013

  Actual Average (KSTL) Record (KSTL)
Temperature  
Mean Temperature 58 °F -  
Max Temperature 75 °F 69 °F 89 °F (1938)
Min Temperature 44 °F 48 °F 30 °F (2000)
Degree Days  
Heating Degree Days 6    
Growing Degree Days 8 (Base 50)    
Moisture  
Dew Point 47 °F    
Average Humidity 80    
Maximum Humidity 100    
Minimum Humidity 39    
Precipitation  
Precipitation 0.00 in - - ()
Sea Level Pressure  
Sea Level Pressure 30.14 in    
Wind  
Wind Speed 3 mph (East)    
Max Wind Speed 9 mph    
Max Gust Speed -    
Visibility 6 miles    
Events Fog    
Averages and records for this station are not official NWS values.
T = Trace of Precipitation, MM = Missing Value Source: NWS Daily Summary

Daily Weather History Graph

Daily Weather History Graph

Search for Another Location

Airport or City:

Trip Planner

Search our weather history database for the weather conditions in past years. The results will help you decide how hot, cold, wet, or windy it might be!

Date:

Astronomy

Oct. 09, 2013 Rise Set
Actual Time 7:05 AM CDT 6:31 PM CDT
Civil Twilight 6:38 AM CDT 6:58 PM CDT
Nautical Twilight 6:07 AM CDT 7:29 PM CDT
Astronomical Twilight 5:36 AM CDT 8:00 PM CDT
Moon 11:58 AM CDT (10/9) 10:08 PM CDT (10/9)
Length of Visible Light 12h 19m
Length of Day
11h 26m
Waxing Crescent, 25% of the Moon is Illuminated
Oct 9
Waxing Crescent
Oct 11
First Quarter
Oct 18
Full
Oct 26
Last Quarter
Nov 3
New

Hourly Weather History & Observations

Time (CDT) Temp. Windchill Dew Point Humidity Pressure Visibility Wind Dir Wind Speed Gust Speed Precip Events Conditions
12:54 AM 50.0 °F - 46.0 °F 86% 30.12 in 10.0 mi East 3.5 mph - N/A   Clear
1:54 AM 50.0 °F - 46.0 °F 86% 30.12 in 10.0 mi East 5.8 mph - N/A   Clear
2:54 AM 48.0 °F - 45.0 °F 89% 30.12 in 10.0 mi East 5.8 mph - N/A   Clear
3:54 AM 48.9 °F - 44.1 °F 83% 30.13 in 10.0 mi Calm Calm - N/A   Clear
4:22 AM 48.2 °F - 46.4 °F 93% 30.14 in 1.5 mi Calm Calm - N/A   Clear
4:39 AM 44.6 °F - 44.6 °F 100% 30.14 in 0.5 mi Calm Calm - N/A Fog Fog
4:54 AM 46.9 °F - 46.0 °F 97% 30.14 in 1.0 mi East 3.5 mph - N/A   Clear
5:07 AM 44.6 °F 42.2 °F 42.8 °F 93% 30.15 in 10.0 mi East 4.6 mph - N/A   Clear
5:28 AM 44.6 °F 43.1 °F 44.6 °F 100% 30.15 in 2.0 mi NE 3.5 mph - N/A   Clear
5:36 AM 46.4 °F 45.2 °F 44.6 °F 93% 30.15 in 9.0 mi ENE 3.5 mph - N/A   Clear
5:46 AM 44.6 °F 43.1 °F 44.6 °F 100% 30.15 in 1.2 mi East 3.5 mph - N/A   Clear
5:54 AM 46.0 °F 43.9 °F 45.0 °F 96% 30.15 in 0.5 mi ENE 4.6 mph - N/A Fog Fog
6:10 AM 44.6 °F - 44.6 °F 100% 30.16 in 2.0 mi Calm Calm - N/A   Partly Cloudy
6:23 AM 46.4 °F - 44.6 °F 93% 30.16 in 8.0 mi Calm Calm - N/A   Clear
6:50 AM 44.6 °F - 44.6 °F 100% 30.17 in 2.0 mi Calm Calm - N/A   Clear
6:54 AM 45.0 °F - 44.1 °F 97% 30.17 in 5.0 mi Calm Calm - N/A   Clear
7:23 AM 44.6 °F - 42.8 °F 93% 30.17 in 1.2 mi Calm Calm - N/A   Clear
7:25 AM 44.6 °F - 42.8 °F 93% 30.17 in 0.8 mi Calm Calm - N/A   Mist
7:38 AM 44.6 °F - 44.6 °F 100% 30.18 in 1.2 mi Calm Calm - N/A   Partly Cloudy
7:46 AM 46.4 °F - 44.6 °F 93% 30.18 in 3.0 mi Calm Calm - N/A   Partly Cloudy
7:54 AM 48.0 °F - 46.0 °F 93% 30.18 in 6.0 mi Calm Calm - N/A   Clear
8:54 AM 55.9 °F - 50.0 °F 80% 30.18 in 10.0 mi East 4.6 mph - N/A   Clear
9:54 AM 61.0 °F - 48.9 °F 64% 30.19 in 10.0 mi East 4.6 mph - N/A   Clear
10:54 AM 64.9 °F - 48.9 °F 56% 30.19 in 10.0 mi Variable 3.5 mph - N/A   Clear
11:54 AM 69.1 °F - 46.9 °F 45% 30.17 in 10.0 mi SE 3.5 mph - N/A   Clear
12:54 PM 71.1 °F - 46.9 °F 42% 30.15 in 10.0 mi Variable 5.8 mph - N/A   Clear
1:54 PM 72.0 °F - 46.9 °F 41% 30.13 in 10.0 mi Variable 4.6 mph - N/A   Clear
2:54 PM 73.0 °F - 46.9 °F 39% 30.11 in 10.0 mi ESE 6.9 mph - N/A   Clear
3:54 PM 73.0 °F - 46.9 °F 39% 30.10 in 10.0 mi Calm Calm - N/A   Clear
4:54 PM 73.9 °F - 48.9 °F 41% 30.09 in 10.0 mi SE 9.2 mph - N/A   Clear
5:47 PM 71.6 °F - 48.2 °F 43% 30.09 in 2.5 mi ESE 6.9 mph - N/A   Haze
5:54 PM 71.1 °F - 48.9 °F 45% 30.09 in 2.5 mi ESE 5.8 mph - N/A   Haze
6:01 PM 71.6 °F - 48.2 °F 43% 30.09 in 10.0 mi ESE 4.6 mph - N/A   Clear
6:54 PM 60.1 °F - 53.1 °F 78% 30.09 in 10.0 mi NE 3.5 mph - N/A   Clear
7:54 PM 57.0 °F - 55.0 °F 93% 30.09 in 10.0 mi Calm Calm - N/A   Clear
8:54 PM 57.0 °F - 52.0 °F 83% 30.10 in 10.0 mi Calm Calm - N/A   Clear
9:54 PM 55.9 °F - 53.1 °F 90% 30.10 in 10.0 mi East 3.5 mph - N/A   Clear
10:39 PM 53.6 °F - 53.6 °F 100% 30.11 in 1.8 mi Calm Calm - N/A   Clear
10:54 PM 55.0 °F - 54.0 °F 96% 30.10 in 4.0 mi Calm Calm - N/A   Clear
11:54 PM 53.1 °F - 51.1 °F 93% 30.11 in 9.0 mi Calm Calm - N/A   Partly Cloudy